CZ-2D DEB (53525 NORAD) Tracking and Keplerian Element Data

This shows tracking and keplerian element data for the satellite.

Feedback or suggestion? Click here.




ElementValue
Catalog53525
NameCZ-2D DEB
Epoch Orbit243
Epoch Day247.96349245
Epoch Year2022
RAAN105.5535
Inclination35.0022
Eccentricity0.0008097
Argument of Perigee54.9615
Mean Anonmoly305.1859
Mean Motion15.23958996
Decay Rate0.00011804
L11 53525U 22100D 22247.96349245 .00011804 00000+0 47655-3 0 9997
L22 53525 35.0022 105.5535 0008097 54.9615 305.1859 15.23958996 2439



Live tracking and technical data element details for CZ-2D DEB (NORAD 53525). CZ-2D DEB can be tracked NOW for your location showing map with azimuth and elevation plus other details from your city location.







IsCatalogInMostPopularTable: catalog: 53525, numindb: 4
Update: records affected: 1



GetName: 53525 CZ-2D DEB

Hit Count: updated at: Thu, 08 Dec 2022 19:18:40 GMT